Wind_Speed
24 24 23 23 24 24 25 25 24 23 25 26 26 24 23 22 21 20 19 18 17 17 17 17 16 15 15 15 14 14 14 13 13 12 12 12 12 11 10 10 9 9 9 9
23 23 22 23 24 24 25 24 23 23 24 25 25 24 23 22 22 21 20 19 19 19 17 16 16 16 15 15 14 14 14 14 14 13 13 13 12 11 11 11 10 10 10 10
22 21 23 24 24 24 25 24 23 24 25 26 25 24 22 21 21 22 21 20 20 18 17 17 17 17 16 16 15 14 15 15 15 14 14 13 13 13 12 12 12 11 12 12
22 22 23 24 24 24 24 23 24 25 26 26 26 25 22 22 21 21 21 21 19 19 18 18 18 18 17 16 16 15 15 14 15 15 15 14 14 14 13 13 13 13 13 13
21 22 24 24 23 23 23 24 25 25 26 26 25 26 23 22 21 21 21 21 20 20 19 18 18 17 17 17 16 16 16 15 14 14 15 15 15 15 15 14 14 15 15 14
22 22 24 23 23 24 24 25 26 26 26 26 24 25 23 22 21 20 20 20 20 19 19 19 19 18 18 17 17 17 17 16 16 15 15 16 16 16 16 15 16 16 15 15
21 22 23 23 23 24 24 25 26 26 26 26 24 26 23 20 21 20 20 20 19 19 20 20 19 19 18 17 17 17 17 17 16 16 16 16 16 16 16 16 17 17 17 16
21 21 22 23 23 24 24 25 25 26 27 27 26 27 24 20 20 20 20 19 19 19 18 19 19 18 18 17 17 18 17 18 18 17 17 17 17 17 17 17 17 17 17 17
21 21 22 23 23 24 24 25 25 27 28 28 28 28 25 21 21 21 21 20 19 18 18 18 18 19 19 19 18 18 18 18 18 18 18 18 18 17 17 17 18 18 19 19
22 21 21 23 24 25 25 25 26 27 29 29 29 28 26 23 22 22 21 20 20 19 18 17 18 19 19 19 19 19 19 19 19 18 18 18 18 18 18 19 19 19 20 20
22 22 22 23 23 24 25 26 27 28 30 30 29 27 24 24 22 21 20 21 20 20 19 18 18 18 18 18 18 18 18 18 18 17 17 18 19 19 20 20 20 20 19 19
22 23 23 24 24 25 26 26 27 28 29 30 29 27 25 24 23 22 21 21 21 20 20 19 18 17 17 17 17 18 19 18 18 18 18 19 20 20 20 20 20 20 19 20
21 22 23 23 24 25 26 26 27 28 29 30 29 27 25 24 24 23 23 22 22 21 20 19 19 18 18 18 18 18 19 19 19 20 20 20 20 21 21 22 21 21 21 21
22 22 22 22 23 24 25 26 27 28 29 29 28 27 25 24 24 24 24 24 23 23 21 20 20 20 20 20 20 20 20 20 20 20 21 21 22 22 22 23 23 23 23 23
22 23 23 22 23 24 24 25 26 27 27 28 27 27 27 25 25 25 25 25 24 24 23 22 22 22 22 21 21 21 20 21 21 21 22 23 23 22 23 23 24 24 24 24
22 22 23 23 24 24 25 25 26 27 27 28 28 27 26 26 26 26 26 25 25 24 24 23 24 24 23 23 22 22 21 21 21 22 23 24 23 23 23 24 24 24 24 24
24 24 23 24 24 26 26 25 26 27 28 27 28 27 27 26 26 27 27 25 25 25 25 25 25 25 25 24 24 23 23 22 22 22 22 22 23 24 25 25 25 25 25 25
25 26 26 26 26 27 26 25 26 27 27 27 27 27 27 26 27 28 28 28 27 27 27 26 25 25 25 25 25 24 24 23 23 23 23 23 25 25 25 25 27 26 26 26
26 27 27 27 27 27 26 25 25 26 27 27 27 27 27 28 27 27 28 29 28 27 27 26 26 26 26 25 25 25 25 25 25 25 25 25 26 27 27 27 26 27 27 27
27 28 28 27 27 27 26 26 26 27 27 26 27 26 27 28 27 26 28 29 29 27 27 27 27 27 27 26 26 26 26 26 26 26 26 27 27 27 28 28 27 27 27 26
28 29 28 28 28 28 27 26 26 27 26 26 27 27 27 27 26 25 26 27 28 28 27 27 27 27 27 27 26 26 27 27 27 27 27 26 27 28 27 27 27 27 26 25
27 28 28 28 29 29 27 27 27 27 27 26 27 27 27 27 26 26 26 27 28 27 27 27 28 28 28 28 27 27 27 27 27 27 28 27 28 28 29 28 27 26 26 25
25 26 26 27 27 27 26 26 27 27 27 27 27 26 26 27 27 27 28 28 28 28 28 28 28 28 28 29 28 27 27 27 28 28 27 27 28 27 27 26 25 25 24 24
24 24 25 24 24 24 25 26 27 27 27 27 27 27 26 26 26 27 27 28 29 28 28 28 28 28 29 30 28 27 27 27 27 26 26 26 25 25 25 24 24 23 23 23
21 22 23 22 23 23 24 25 25 26 27 27 27 27 27 27 27 27 27 27 28 29 29 29 28 28 28 27 26 26 26 27 26 26 26 25 25 24 24 24 23 22 21 22
19 19 20 21 22 23 24 24 25 25 25 26 26 26 26 26 26 25 25 25 27 27 27 27 27 26 26 26 26 26 26 26 26 26 26 25 25 25 24 23 23 22 21 21
Wind_Direction
239 238 238 238 238 238 238 239 239 239 243 246 249 252 255 259 262 265 266 263 266 270 273 276 278 278 276 275 276 276 274 270 269 270 275 273 271 273 276 271 268 266 264 265
239 237 235 235 236 237 238 238 239 238 243 247 251 252 254 259 262 263 262 261 262 267 270 273 274 277 276 273 271 272 272 269 266 270 274 273 268 267 271 269 267 264 266 271
237 236 235 234 235 238 239 240 240 241 244 249 252 250 253 258 262 260 259 260 261 264 268 271 270 272 275 273 270 269 268 267 265 266 268 270 266 266 270 267 263 262 264 268
236 234 235 235 235 238 240 240 241 242 245 249 250 252 252 257 260 260 260 261 263 265 269 272 269 266 266 269 268 265 268 266 265 265 265 267 267 268 268 266 262 264 266 266
237 235 235 236 236 239 240 241 242 244 246 249 252 255 254 258 261 263 262 263 264 265 267 272 270 264 262 262 263 262 265 266 265 267 266 266 265 265 265 264 262 263 265 265
237 237 236 236 237 239 239 241 243 243 245 250 253 258 258 259 262 264 265 266 266 266 269 270 269 265 262 258 257 258 263 265 265 265 265 264 264 264 263 263 263 264 264 267
237 237 237 236 237 239 240 243 245 246 247 251 253 258 260 259 259 262 263 265 267 271 272 270 269 265 266 261 257 258 261 264 265 265 266 264 265 265 265 262 262 264 265 266
239 238 239 239 239 242 243 245 247 250 252 253 254 257 260 258 258 259 261 263 265 269 272 269 267 270 269 264 260 260 262 264 264 265 266 267 269 268 266 263 264 264 263 264
242 240 239 240 241 242 242 244 246 250 252 255 256 257 258 260 259 261 261 262 263 263 266 268 265 266 265 263 262 262 263 263 262 263 264 265 267 267 267 265 265 265 264 266
245 243 240 241 242 243 244 246 247 249 253 257 258 258 259 258 261 261 260 259 260 260 260 264 264 264 263 262 261 261 260 261 261 261 262 261 262 263 265 266 267 268 268 267
247 245 241 241 242 243 243 244 247 251 254 258 262 261 264 261 260 260 258 258 260 262 261 265 264 264 266 265 262 260 261 260 260 260 260 261 262 265 267 267 266 268 270 270
247 246 243 244 244 244 244 246 248 250 254 258 261 262 263 264 262 260 257 259 261 262 264 266 266 266 266 267 265 263 262 262 261 260 260 263 265 267 269 268 267 267 268 268
247 247 245 244 244 244 245 246 249 251 254 257 259 262 264 263 262 260 259 261 262 262 263 264 266 269 269 267 266 265 265 266 265 262 261 261 262 264 266 266 267 267 268 268
249 249 248 248 248 248 248 248 250 252 254 256 259 260 261 263 262 260 261 262 263 261 263 266 268 269 269 268 267 266 267 269 267 264 264 264 264 265 267 266 266 268 269 269
251 251 249 249 248 249 250 251 252 254 256 258 260 261 261 263 262 261 260 259 260 260 261 264 266 267 268 268 267 266 268 269 268 267 267 267 268 269 268 267 266 268 269 268
251 252 250 249 249 250 251 252 253 255 257 259 261 262 262 262 263 261 260 260 259 258 259 263 265 267 268 268 267 267 270 270 270 270 270 268 270 271 269 268 266 267 268 267
251 252 252 252 252 253 252 252 255 257 259 261 262 262 262 261 261 262 261 261 260 257 258 263 264 265 267 267 267 267 268 268 267 269 271 269 272 274 272 269 268 269 269 268
254 254 254 254 254 253 254 253 255 258 260 261 261 263 263 263 264 264 264 262 262 260 259 261 264 266 265 266 266 267 266 266 265 267 268 267 272 274 274 273 270 269 268 268
254 254 255 255 255 255 253 254 255 257 258 259 262 264 265 265 266 265 264 262 260 260 260 262 264 266 266 266 267 268 268 268 266 265 266 269 270 273 274 274 274 270 267 265
253 253 254 257 259 258 255 257 259 259 260 262 263 264 264 266 268 267 265 263 260 262 264 264 266 267 268 268 269 269 268 268 269 268 269 269 269 273 274 275 274 272 270 269
254 254 255 258 259 259 258 260 263 263 264 263 264 264 265 266 268 268 266 265 262 262 262 263 264 267 268 268 267 268 267 268 268 268 270 271 272 273 274 274 273 272 271 269
256 256 256 258 259 259 258 260 262 264 265 265 265 265 266 267 268 267 265 265 264 263 262 262 263 264 265 267 268 268 268 268 268 268 270 271 272 273 273 273 272 269 269 268
258 257 257 259 259 259 257 259 261 263 263 264 265 266 267 267 267 267 266 266 264 264 264 263 263 262 263 266 268 267 268 269 269 269 269 271 273 273 273 271 269 266 266 267
258 257 258 257 255 256 258 259 261 262 263 264 265 266 267 267 266 265 266 265 264 263 264 264 264 263 262 264 264 266 268 269 269 268 269 270 271 271 272 270 269 266 263 264
260 258 257 257 256 257 258 259 261 262 262 264 265 266 266 266 265 264 265 264 265 263 264 264 263 264 263 262 265 266 267 268 267 267 268 269 268 268 272 270 268 265 263 264
260 259 258 258 257 258 260 260 261 261 262 263 263 264 265 265 265 264 265 263 263 263 263 265 265 265 264 265 266 266 267 268 266 266 266 267 268 269 268 266 264 264 264 264
Height
5815 5819 5821 5824 5826 5829 5831 5833 5836 5838 5839 5840 5841 5843 5844 5845 5846 5847 5848 5848 5849 5849 5849 5849 5849 5848 5848 5849 5849 5849 5849 5849 5849 5849 5849 5849 5849 5849 5849 5849 5849 5849 5849 5850
5811 5814 5817 5819 5821 5823 5826 5829 5832 5834 5834 5835 5836 5838 5840 5840 5842 5843 5843 5844 5844 5845 5845 5845 5845 5845 5845 5845 5845 5845 5845 5846 5846 5846 5846 5846 5846 5846 5846 5847 5847 5847 5847 5848
5807 5811 5812 5814 5817 5819 5822 5825 5827 5829 5829 5830 5832 5834 5835 5836 5837 5838 5838 5839 5839 5840 5840 5841 5840 5841 5841 5841 5841 5842 5842 5842 5842 5842 5842 5842 5843 5843 5843 5844 5844 5844 5844 5845
5802 5805 5807 5810 5812 5815 5818 5821 5822 5823 5824 5825 5827 5828 5831 5831 5832 5833 5834 5834 5835 5836 5836 5836 5836 5836 5837 5837 5838 5838 5838 5838 5838 5839 5839 5839 5840 5840 5840 5840 5841 5841 5841 5842
5798 5800 5803 5805 5809 5811 5814 5815 5817 5818 5819 5821 5822 5823 5827 5827 5828 5829 5830 5830 5830 5831 5831 5831 5831 5832 5832 5833 5833 5834 5834 5834 5835 5835 5835 5835 5836 5836 5836 5837 5837 5838 5838 5838
5793 5795 5798 5801 5804 5806 5808 5810 5811 5813 5814 5816 5818 5818 5821 5823 5824 5824 5825 5825 5825 5826 5826 5827 5827 5827 5828 5828 5829 5829 5829 5830 5830 5830 5831 5831 5832 5832 5832 5833 5834 5834 5834 5835
5789 5791 5794 5796 5798 5801 5803 5805 5807 5808 5809 5811 5814 5813 5817 5818 5819 5820 5821 5821 5821 5822 5822 5822 5822 5823 5823 5823 5824 5824 5825 5825 5825 5825 5826 5827 5828 5828 5828 5829 5829 5830 5830 5830
5784 5787 5789 5792 5794 5796 5798 5800 5803 5804 5805 5807 5808 5808 5812 5814 5815 5815 5816 5817 5817 5817 5818 5818 5818 5818 5818 5819 5819 5819 5820 5820 5820 5821 5822 5822 5823 5823 5824 5824 5825 5826 5826 5826
5780 5783 5785 5787 5789 5791 5793 5794 5797 5799 5799 5800 5802 5804 5807 5809 5810 5810 5811 5812 5812 5813 5813 5813 5813 5814 5814 5814 5814 5814 5814 5815 5815 5816 5817 5817 5818 5819 5819 5820 5821 5821 5822 5822
5775 5778 5780 5782 5784 5785 5788 5790 5791 5792 5793 5794 5796 5798 5801 5804 5805 5806 5806 5807 5807 5808 5808 5808 5808 5808 5808 5808 5808 5809 5809 5810 5810 5811 5811 5812 5813 5814 5815 5816 5816 5816 5816 5817
5769 5772 5775 5777 5778 5780 5782 5784 5785 5786 5788 5789 5790 5795 5796 5797 5799 5800 5801 5801 5802 5803 5803 5803 5802 5803 5803 5803 5803 5804 5805 5805 5805 5806 5806 5807 5808 5809 5810 5810 5811 5811 5811 5811
5764 5767 5769 5771 5773 5774 5776 5778 5780 5781 5782 5783 5785 5790 5790 5791 5792 5793 5794 5795 5796 5797 5797 5797 5798 5798 5798 5798 5798 5799 5800 5800 5800 5801 5802 5802 5802 5803 5804 5805 5805 5805 5806 5806
5759 5761 5763 5765 5769 5769 5770 5772 5773 5775 5776 5777 5779 5784 5783 5784 5785 5787 5788 5789 5790 5791 5792 5792 5793 5793 5793 5793 5793 5794 5794 5795 5795 5796 5796 5797 5797 5798 5799 5799 5799 5799 5800 5800
5754 5756 5759 5761 5762 5763 5764 5766 5767 5768 5769 5771 5773 5775 5777 5777 5779 5780 5782 5783 5784 5785 5786 5787 5787 5787 5788 5788 5788 5788 5789 5789 5790 5790 5791 5791 5791 5792 5792 5793 5793 5793 5793 5794
5748 5750 5752 5754 5755 5757 5758 5760 5761 5762 5763 5764 5766 5768 5770 5771 5772 5774 5775 5776 5777 5779 5780 5781 5781 5782 5782 5782 5783 5783 5783 5784 5784 5784 5785 5785 5785 5785 5785 5786 5786 5786 5786 5787
5742 5744 5746 5748 5749 5750 5752 5754 5755 5756 5757 5758 5759 5761 5763 5764 5765 5767 5768 5769 5771 5772 5773 5775 5775 5776 5776 5776 5776 5777 5777 5777 5778 5778 5778 5778 5779 5779 5779 5779 5779 5779 5779 5779
5736 5738 5740 5742 5743 5744 5745 5748 5748 5749 5750 5752 5752 5755 5756 5757 5758 5759 5761 5762 5763 5765 5767 5768 5769 5769 5770 5770 5770 5770 5771 5771 5771 5771 5771 5772 5772 5772 5772 5772 5772 5772 5772 5772
5730 5731 5733 5734 5736 5737 5742 5741 5742 5743 5743 5744 5745 5747 5748 5750 5751 5752 5753 5755 5756 5757 5759 5760 5761 5762 5762 5763 5763 5764 5764 5764 5765 5765 5765 5765 5765 5765 5765 5765 5764 5764 5764 5764
5723 5725 5725 5727 5728 5729 5733 5734 5735 5736 5737 5738 5739 5740 5741 5742 5743 5745 5746 5747 5748 5750 5751 5752 5753 5754 5755 5755 5756 5757 5757 5757 5758 5758 5758 5757 5757 5757 5757 5756 5756 5756 5756 5756
5716 5717 5719 5719 5720 5722 5726 5727 5728 5730 5730 5732 5732 5733 5734 5735 5737 5738 5738 5739 5740 5741 5743 5744 5745 5746 5747 5748 5748 5749 5749 5750 5750 5750 5750 5750 5749 5749 5749 5748 5748 5748 5748 5748
5709 5710 5711 5712 5712 5714 5718 5719 5721 5723 5725 5725 5725 5726 5727 5728 5729 5730 5730 5731 5732 5734 5735 5736 5737 5738 5739 5740 5740 5741 5742 5742 5742 5742 5742 5742 5741 5741 5741 5740 5740 5740 5740 5740
5701 5702 5703 5704 5706 5710 5710 5712 5714 5715 5716 5716 5717 5718 5719 5720 5721 5721 5722 5723 5724 5726 5727 5728 5729 5731 5732 5732 5733 5733 5734 5734 5734 5734 5734 5734 5733 5733 5732 5731 5731 5731 5731 5732
5693 5695 5696 5698 5701 5702 5703 5704 5706 5707 5708 5709 5710 5711 5712 5712 5713 5714 5715 5715 5716 5718 5719 5720 5721 5722 5723 5724 5724 5725 5726 5726 5726 5726 5726 5725 5725 5724 5723 5722 5722 5723 5723 5724
5686 5687 5689 5690 5692 5694 5695 5697 5698 5699 5700 5701 5702 5703 5704 5704 5705 5705 5706 5707 5708 5709 5710 5711 5712 5713 5714 5715 5715 5717 5717 5717 5717 5717 5717 5717 5717 5716 5715 5715 5714 5715 5715 5716
5680 5681 5682 5683 5685 5687 5688 5689 5691 5692 5693 5694 5694 5695 5696 5696 5697 5697 5698 5699 5700 5701 5702 5703 5704 5704 5705 5706 5707 5708 5709 5709 5709 5709 5710 5709 5709 5709 5708 5708 5708 5708 5708 5708
5674 5675 5676 5678 5679 5680 5682 5682 5684 5685 5685 5686 5687 5687 5688 5688 5688 5689 5690 5690 5691 5692 5694 5694 5695 5696 5697 5698 5699 5700 5700 5700 5701 5701 5701 5702 5702 5701 5701 5701 5701 5701 5701 5701